Location: Casone le Fosse
(44.6547°N, 12.1103°E)
Time: 04:37:19
(UTC+00:00)

Lacrosse 5 - Pass Details

Date: 29 October 2020
Orbit: 714 x 725 km, 57.0° (Epoch: 30 November)

Event Time Altitude Azimuth Distance (km) Brightness Sun altitude
Rises 16:29:22 0° 290° (WNW) 3,117 6.2 -5.1°
Reaches altitude 10° 16:32:21 10° 307° (NW) 2,197 5.0 -5.6°
Maximum altitude 16:36:04 20° 355° (N) 1,618 3.6 -6.3°
Drops below altitude 10° 16:39:48 10° 43° (NE) 2,199 3.9 -6.9°
Enters shadow 16:41:02 - 51° (NE) 2,559 4.2 -7.1°
